DW1121 Weather Reports


time (UTC)temp
F
wind
direction
speed
knots
gust
knots
rain 1hr
in
rain 24hr
in
rain mn
in
humidity
%
barometer
mb
20260506002104 66 114 1.7 1.7 0.00 0.00 0.00 51 1013.5
20260506001605 66 112 0.9 1.7 0.00 0.00 0.00 50 1013.5
20260505235604 69 60 0.0 0.0 0.00 0.00 0.00 48 1013.2
20260505235105 70 175 0.9 0.9 0.00 0.00 0.00 42 1013.2
20260505234604 70 158 0.9 1.7 0.00 0.00 0.00 38 1013.2
20260505234105 70 224 1.7 1.7 0.00 0.00 0.00 38 1013.2
20260505233604 70 180 0.9 1.7 0.00 0.00 0.00 37 1013.2
20260505233104 71 153 0.9 4.3 0.00 0.00 0.00 36 1013.2
20260505231604 71 202 1.7 5.2 0.00 0.00 0.00 36 1013.4
20260505231105 71 164 0.9 0.9 0.00 0.00 0.00 35 1013.2
20260505230604 71 202 0.9 1.7 0.00 0.00 0.00 35 1013.2
20260505225104 72 176 0.0 1.7 0.00 0.00 0.00 35 1013.4
20260505224604 73 189 1.7 2.6 0.00 0.00 0.00 34 1013.4
20260505224104 73 225 3.5 5.2 0.00 0.00 0.00 34 1013.4
20260505223605 73 197 1.7 1.7 0.00 0.00 0.00 34 1013.5
20260505223104 74 201 0.9 1.7 0.00 0.00 0.00 34 1013.5
20260505222604 74 180 1.7 1.7 0.00 0.00 0.00 33 1013.4
20260505222104 75 199 0.9 1.7 0.00 0.00 0.00 32 1013.4
20260505221104 75 202 1.7 1.7 0.00 0.00 0.00 32 1013.3
20260505220605 75 202 1.7 2.6 0.00 0.00 0.00 31 1013.3
20260505220104 76 180 0.9 1.7 0.00 0.00 0.00 31 1013.2
20260505215605 76 248 0.9 0.9 0.00 0.00 0.00 32 1013.2
20260505214604 75 219 0.9 5.2 0.00 0.00 0.00 32 1013.1
20260505214105 76 180 5.2 5.2 0.00 0.00 0.00 32 1013.1
20260505213604 76 180 4.3 6.1 0.00 0.00 0.00 32 1013.0
20260505213104 77 149 0.9 2.6 0.00 0.00 0.00 32 1013.0
20260505212604 77 169 1.7 2.6 0.00 0.00 0.00 33 1013.1
20260505212104 77 190 0.9 1.7 0.00 0.00 0.00 32 1013.1
20260505211605 78 180 0.9 0.9 0.00 0.00 0.00 31 1013.0
20260505211105 79 202 0.0 5.2 0.00 0.00 0.00 30 1013.0
20260505210105 79 193 1.7 1.7 0.00 0.00 0.00 29 1013.3
20260505205605 78 202 1.7 5.2 0.00 0.00 0.00 29 1013.3
20260505205104 78 216 2.6 5.2 0.00 0.00 0.00 29 1013.3
20260505204606 78 188 1.7 2.6 0.00 0.00 0.00 28 1013.3
20260505203105 79 215 2.6 6.1 0.00 0.00 0.00 29 1013.3
20260505202604 79 173 2.6 2.6 0.00 0.00 0.00 28 1013.3
20260505202105 78 160 2.6 5.2 0.00 0.00 0.00 29 1013.3
20260505201605 79 182 1.7 4.3 0.00 0.00 0.00 30 1013.4
20260505201104 77 180 1.7 4.3 0.00 0.00 0.00 30 1013.4
20260505200605 77 122 4.3 7.0 0.00 0.00 0.00 29 1013.4
20260505200105 77 168 2.6 4.3 0.00 0.00 0.00 30 1013.7
20260505195605 78 122 5.2 7.8 0.00 0.00 0.00 29 1013.7
20260505195105 79 128 4.3 5.2 0.00 0.00 0.00 29 1013.7
20260505194605 78 186 2.6 4.3 0.00 0.00 0.00 29 1013.7
20260505194104 78 137 2.6 4.3 0.00 0.00 0.00 30 1013.7
20260505193604 78 212 4.3 6.1 0.00 0.00 0.00 29 1013.9
20260505193105 78 178 2.6 5.2 0.00 0.00 0.00 27 1013.9
20260505192605 77 200 4.3 5.2 0.00 0.00 0.00 27 1014.0
20260505191105 78 187 0.0 0.0 0.00 0.00 0.00 26 1014.3
20260505190604 79 151 0.0 1.7 0.00 0.00 0.00 27 1014.3
20260505190105 78 174 0.9 1.7 0.00 0.00 0.00 28 1014.3
20260505185604 78 159 0.0 0.9 0.00 0.00 0.00 28 1014.3
20260505185104 78 222 0.0 1.7 0.00 0.00 0.00 29 1014.5
20260505184604 79 150 1.7 1.7 0.00 0.00 0.00 27 1014.5
20260505184104 79 204 0.0 1.7 0.00 0.00 0.00 27 1014.5
20260505183604 79 186 0.0 0.9 0.00 0.00 0.00 27 1014.6
20260505183105 78 187 0.9 2.6 0.00 0.00 0.00 27 1014.6
20260505182605 78 136 0.0 0.0 0.00 0.00 0.00 28 1014.8
20260505182105 77 220 0.0 1.7 0.00 0.00 0.00 27 1014.8
20260505181605 77 254 0.9 0.9 0.00 0.00 0.00 27 1014.8
20260505181105 78 202 0.0 1.7 0.00 0.00 0.00 27 1015.1
20260505180604 78 190 0.0 0.9 0.00 0.00 0.00 28 1015.1
20260505175604 77 198 1.7 1.7 0.00 0.00 0.00 30 1015.2
20260505175105 76 94 0.9 5.2 0.00 0.00 0.00 32 1015.3
20260505174605 77 175 0.9 2.6 0.00 0.00 0.00 33 1015.3
20260505174104 77 104 1.7 2.6 0.00 0.00 0.00 35 1015.3
20260505173605 75 203 1.7 4.3 0.00 0.00 0.00 35 1015.6
20260505173105 76 207 2.6 7.0 0.00 0.00 0.00 37 1015.6
20260505172605 76 212 0.9 1.7 0.00 0.00 0.00 37 1015.7
20260505172105 76 4 0.0 1.7 0.00 0.00 0.00 36 1015.7
20260505171605 75 214 0.9 1.7 0.00 0.00 0.00 37 1015.7
20260505171105 76 171 1.7 2.6 0.00 0.00 0.00 36 1015.7
20260505170605 76 205 0.9 2.6 0.00 0.00 0.00 35 1015.7
20260505170105 76 214 0.0 0.9 0.00 0.00 0.00 35 1015.8
20260505165604 76 189 1.7 2.6 0.00 0.00 0.00 36 1015.8
20260505165104 77 251 0.0 0.9 0.00 0.00 0.00 35 1016.1
20260505164105 75 202 4.3 6.1 0.00 0.00 0.00 36 1016.1
20260505163105 76 270 2.6 5.2 0.00 0.00 0.00 37 1016.2
20260505162104 74 254 0.9 4.3 0.00 0.00 0.00 37 1016.0
20260505161605 74 141 0.9 5.2 0.00 0.00 0.00 38 1016.0
20260505161105 73 258 0.0 5.2 0.00 0.00 0.00 37 1016.0
20260505160606 73 221 0.9 1.7 0.00 0.00 0.00 39 1016.0
20260505160105 73 180 0.9 2.6 0.00 0.00 0.00 39 1015.9
20260505153105 72 154 0.9 1.7 0.00 0.00 0.00 42 1016.2
20260505152605 73 22 0.0 4.3 0.00 0.00 0.00 45 1016.5
20260505152105 73 31 1.7 2.6 0.00 0.00 0.00 48 1016.5
20260505151604 72 55 0.9 0.9 0.00 0.00 0.00 49 1016.5
20260505151105 71 52 0.9 1.7 0.00 0.00 0.00 47 1016.3
20260505150605 69 180 0.9 1.7 0.00 0.00 0.00 48 1016.3
20260505140104 61 168 0.9 1.7 0.00 0.00 0.00 65 1016.6
20260505130105 53 144 0.0 0.0 0.00 0.00 0.00 83 1016.1
20260505124605 51 158 0.0 0.0 0.00 0.00 0.00 87 1015.9
20260505124105 50 156 0.0 0.0 0.00 0.00 0.00 89 1015.9
20260505123605 50 160 0.0 0.9 0.00 0.00 0.00 89 1016.0
20260505123105 49 97 0.0 0.9 0.00 0.00 0.00 89 1016.0
20260505122604 49 158 0.0 0.0 0.00 0.00 0.00 89 1015.8
20260505122105 48 158 0.0 0.0 0.00 0.00 0.00 89 1015.8
20260505120604 47 180 0.0 0.0 0.00 0.00 0.00 89 1015.8
20260505120105 47 202 0.0 0.0 0.00 0.00 0.00 89 1015.7
20260505115604 47 180 0.0 0.0 0.00 0.00 0.00 89 1015.7
20260505115106 46 118 0.0 0.0 0.00 0.00 0.00 89 1015.4
20260505114605 46 181 0.0 0.0 0.00 0.00 0.00 89 1015.4
20260505113606 46 169 0.0 0.0 0.00 0.00 0.00 89 1015.4
20260505113105 46 84 0.0 0.0 0.00 0.00 0.00 89 1015.4
20260505112605 45 86 0.0 0.0 0.00 0.00 0.00 89 1015.2
20260505112104 45 178 0.0 0.0 0.00 0.00 0.00 89 1015.2
20260505111605 45 132 0.0 0.0 0.00 0.00 0.00 89 1015.2
20260505111105 45 163 0.0 0.0 0.00 0.00 0.00 89 1015.2
20260505110104 46 180 0.0 0.0 0.00 0.00 0.00 89 1015.0
20260505102105 46 131 0.0 0.0 0.00 0.00 0.00 89 1015.2
20260505101606 46 108 0.0 0.0 0.00 0.00 0.00 89 1015.2
20260505101105 46 141 0.0 0.0 0.00 0.00 0.00 89 1015.2
20260505100606 46 133 0.0 0.0 0.00 0.00 0.00 89 1015.2
20260505095605 73 91 0.0 0.9 0.00 0.00 0.00 38 1015.1